| time (UTC) | temp F | wind direction | speed knots | gust knots | rain 1hr in | rain 24hr in | rain mn in | humidity % | barometer mb |
| 20260505185519 | 55 | 360 | 9.6 | 16.5 | 0.00 | 0.00 | 0.00 | 39 | 955.6 |
| 20260505185013 | 56 | 360 | 8.7 | 13.0 | 0.00 | 0.00 | 0.00 | 39 | 955.5 |
| 20260505184515 | 56 | 360 | 5.2 | 13.0 | 0.00 | 0.00 | 0.00 | 38 | 955.6 |
| 20260505184012 | 55 | 360 | 9.6 | 13.0 | 0.00 | 0.00 | 0.00 | 38 | 955.5 |
| 20260505183510 | 55 | 360 | 8.7 | 14.8 | 0.00 | 0.00 | 0.00 | 40 | 955.4 |
| 20260505183017 | 55 | 360 | 7.8 | 21.7 | 0.00 | 0.00 | 0.00 | 36 | 955.4 |
| 20260505182510 | 55 | 360 | 9.6 | 17.4 | 0.00 | 0.00 | 0.00 | 37 | 955.4 |
| 20260505182010 | 55 | 360 | 12.2 | 17.4 | 0.00 | 0.00 | 0.00 | 36 | 955.4 |
| 20260505181516 | 55 | 360 | 11.3 | 17.4 | 0.00 | 0.00 | 0.00 | 37 | 955.4 |
| 20260505181016 | 54 | 360 | 9.6 | 18.2 | 0.00 | 0.00 | 0.00 | 37 | 955.2 |
| 20260505180510 | 54 | 360 | 10.4 | 18.2 | 0.00 | 0.00 | 0.00 | 36 | 955.1 |
| 20260505180017 | 54 | 360 | 10.4 | 15.6 | 0.00 | 0.00 | 0.00 | 36 | 955.2 |
| 20260505175510 | 54 | 360 | 9.6 | 16.5 | 0.00 | 0.00 | 0.00 | 35 | 955.2 |
| 20260505175009 | 54 | 360 | 7.0 | 16.5 | 0.00 | 0.00 | 0.00 | 36 | 955.1 |
| 20260505174509 | 54 | 360 | 8.7 | 14.8 | 0.00 | 0.00 | 0.00 | 37 | 955.1 |
| 20260505174009 | 53 | 360 | 9.6 | 16.5 | 0.00 | 0.00 | 0.00 | 41 | 955.0 |
| 20260505173512 | 53 | 360 | 9.6 | 15.6 | 0.00 | 0.00 | 0.00 | 37 | 955.0 |
| 20260505173010 | 53 | 360 | 8.7 | 17.4 | 0.00 | 0.00 | 0.00 | 37 | 955.1 |
| 20260505172509 | 53 | 360 | 9.6 | 17.4 | 0.00 | 0.00 | 0.00 | 38 | 955.1 |
| 20260505172016 | 53 | 360 | 9.6 | 17.4 | 0.00 | 0.00 | 0.00 | 41 | 955.0 |
| 20260505171523 | 53 | 360 | 10.4 | 13.9 | 0.00 | 0.00 | 0.00 | 40 | 955.1 |
| 20260505171010 | 53 | 360 | 7.0 | 14.8 | 0.00 | 0.00 | 0.00 | 39 | 955.1 |
| 20260505170514 | 53 | 360 | 9.6 | 15.6 | 0.00 | 0.00 | 0.00 | 43 | 955.3 |
| 20260505170013 | 52 | 360 | 7.8 | 16.5 | 0.00 | 0.00 | 0.00 | 40 | 955.2 |
| 20260505165509 | 52 | 360 | 10.4 | 15.6 | 0.00 | 0.00 | 0.00 | 39 | 955.3 |
| 20260505165007 | 52 | 360 | 8.7 | 19.1 | 0.00 | 0.00 | 0.00 | 37 | 955.3 |
| 20260505164514 | 53 | 360 | 12.2 | 19.1 | 0.00 | 0.00 | 0.00 | 37 | 955.4 |
| 20260505164007 | 53 | 360 | 8.7 | 13.9 | 0.00 | 0.00 | 0.00 | 37 | 955.2 |
| 20260505163507 | 52 | 360 | 7.0 | 14.8 | 0.00 | 0.00 | 0.00 | 38 | 955.1 |
| 20260505163009 | 53 | 360 | 7.8 | 16.5 | 0.00 | 0.00 | 0.00 | 36 | 955.1 |
| 20260505162506 | 53 | 360 | 10.4 | 16.5 | 0.00 | 0.00 | 0.00 | 34 | 955.2 |
| 20260505162006 | 53 | 360 | 8.7 | 15.6 | 0.00 | 0.00 | 0.00 | 35 | 955.1 |
| 20260505161506 | 54 | 360 | 8.7 | 13.9 | 0.00 | 0.00 | 0.00 | 35 | 954.9 |
| 20260505161006 | 53 | 360 | 8.7 | 17.4 | 0.00 | 0.00 | 0.00 | 34 | 955.1 |
| 20260505160508 | 53 | 360 | 11.3 | 17.4 | 0.00 | 0.00 | 0.00 | 37 | 955.1 |
| 20260505153006 | 53 | 360 | 9.6 | 20.0 | 0.00 | 0.00 | 0.00 | 36 | 955.1 |
| 20260505152504 | 53 | 360 | 13.9 | 20.0 | 0.00 | 0.00 | 0.00 | 36 | 955.0 |
| 20260505152006 | 53 | 360 | 10.4 | 13.9 | 0.00 | 0.00 | 0.00 | 39 | 955.1 |
| 20260505151504 | 52 | 360 | 7.0 | 14.8 | 0.00 | 0.00 | 0.00 | 36 | 955.1 |
| 20260505151003 | 52 | 360 | 10.4 | 14.8 | 0.00 | 0.00 | 0.00 | 38 | 955.0 |
| 20260505150504 | 52 | 360 | 6.1 | 18.2 | 0.00 | 0.00 | 0.00 | 36 | 955.1 |
| 20260505140550 | 51 | 360 | 8.7 | 13.0 | 0.00 | 0.00 | 0.00 | 47 | 954.9 |
| 20260505125033 | 48 | 360 | 3.5 | 7.0 | 0.00 | 0.00 | 0.00 | 56 | 955.2 |
| 20260505124535 | 47 | 360 | 5.2 | 7.0 | 0.00 | 0.00 | 0.00 | 54 | 955.2 |
| 20260505124032 | 47 | 360 | 5.2 | 7.0 | 0.00 | 0.00 | 0.00 | 55 | 955.0 |
| 20260505123531 | 47 | 360 | 3.5 | 5.2 | 0.00 | 0.00 | 0.00 | 57 | 955.2 |
| 20260505123046 | 46 | 360 | 2.6 | 4.3 | 0.00 | 0.00 | 0.00 | 59 | 955.1 |
| 20260505122530 | 46 | 360 | 2.6 | 3.5 | 0.00 | 0.00 | 0.00 | 59 | 955.1 |
| 20260505122030 | 46 | 360 | 1.7 | 2.6 | 0.00 | 0.00 | 0.00 | 60 | 955.1 |
| 20260505121535 | 45 | 360 | 1.7 | 4.3 | 0.00 | 0.00 | 0.00 | 60 | 955.3 |
| 20260505121028 | 45 | 360 | 0.9 | 4.3 | 0.00 | 0.00 | 0.00 | 61 | 955.0 |
| 20260505120527 | 45 | 360 | 0.9 | 3.5 | 0.00 | 0.00 | 0.00 | 60 | 955.0 |
| 20260505120038 | 45 | 360 | 1.7 | 3.5 | 0.00 | 0.00 | 0.00 | 58 | 955.3 |
| 20260505115526 | 45 | 360 | 1.7 | 2.6 | 0.00 | 0.00 | 0.00 | 58 | 955.0 |
| 20260505115026 | 45 | 360 | 0.0 | 4.3 | 0.00 | 0.00 | 0.00 | 57 | 954.6 |
| 20260505114536 | 45 | 360 | 1.7 | 4.3 | 0.00 | 0.00 | 0.00 | 56 | 954.4 |
| 20260505114026 | 45 | 360 | 1.7 | 4.3 | 0.00 | 0.00 | 0.00 | 57 | 954.4 |
| 20260505113525 | 45 | 360 | 0.0 | 5.2 | 0.00 | 0.00 | 0.00 | 58 | 954.3 |
| 20260505113024 | 46 | 360 | 1.7 | 5.2 | 0.00 | 0.00 | 0.00 | 56 | 954.8 |
| 20260505112523 | 46 | 360 | 2.6 | 4.3 | 0.00 | 0.00 | 0.00 | 56 | 955.3 |
| 20260505112022 | 46 | 360 | 1.7 | 2.6 | 0.00 | 0.00 | 0.00 | 55 | 954.4 |
| 20260505111521 | 46 | 360 | 0.9 | 1.7 | 0.00 | 0.00 | 0.00 | 54 | 953.9 |
| 20260505111019 | 46 | 360 | 0.0 | 3.5 | 0.00 | 0.00 | 0.00 | 54 | 953.4 |
| 20260505110519 | 46 | 360 | 1.7 | 3.5 | 0.00 | 0.00 | 0.00 | 54 | 953.2 |
| 20260505102014 | 47 | 360 | 2.6 | 5.2 | 0.00 | 0.00 | 0.00 | 52 | 953.7 |
| 20260505101513 | 47 | 360 | 2.6 | 5.2 | 0.00 | 0.00 | 0.00 | 53 | 953.6 |
| 20260505101012 | 47 | 360 | 3.5 | 5.2 | 0.00 | 0.00 | 0.00 | 53 | 953.7 |
| 20260505100512 | 47 | 360 | 1.7 | 4.3 | 0.00 | 0.00 | 0.00 | 53 | 953.2 |
| 20260505100010 | 47 | 360 | 2.6 | 7.8 | 0.00 | 0.00 | 0.00 | 53 | 953.2 |
| 20260505095510 | 47 | 360 | 1.7 | 7.8 | 0.00 | 0.00 | 0.00 | 53 | 952.9 |
| 20260505095012 | 48 | 360 | 2.6 | 5.2 | 0.00 | 0.00 | 0.00 | 53 | 952.8 |
| 20260505094508 | 48 | 360 | 1.7 | 7.8 | 0.00 | 0.00 | 0.00 | 53 | 952.5 |
| 20260505094008 | 48 | 360 | 3.5 | 7.8 | 0.00 | 0.00 | 0.00 | 53 | 952.9 |
| 20260505093511 | 48 | 360 | 4.3 | 7.8 | 0.00 | 0.00 | 0.00 | 52 | 952.9 |
| 20260505093008 | 48 | 360 | 4.3 | 7.8 | 0.00 | 0.00 | 0.00 | 53 | 952.9 |
| 20260505092608 | 48 | 360 | 2.6 | 9.6 | 0.00 | 0.00 | 0.00 | 53 | 952.5 |
| 20260505092008 | 48 | 360 | 4.3 | 8.7 | 0.00 | 0.00 | 0.00 | 52 | 952.2 |
| 20260505091507 | 48 | 360 | 0.9 | 8.7 | 0.00 | 0.00 | 0.00 | 53 | 952.2 |
| 20260505091007 | 48 | 360 | 1.7 | 7.0 | 0.00 | 0.00 | 0.00 | 54 | 952.2 |
| 20260505090506 | 48 | 360 | 1.7 | 4.3 | 0.00 | 0.00 | 0.00 | 55 | 952.6 |
| 20260505090009 | 49 | 360 | 1.7 | 7.0 | 0.00 | 0.00 | 0.00 | 54 | 952.7 |
| 20260505085506 | 49 | 360 | 3.5 | 7.0 | 0.00 | 0.00 | 0.00 | 54 | 952.9 |
| 20260505085007 | 48 | 360 | 2.6 | 7.0 | 0.00 | 0.00 | 0.00 | 55 | 952.9 |
| 20260505084505 | 48 | 360 | 3.5 | 5.2 | 0.00 | 0.00 | 0.00 | 56 | 952.7 |
| 20260505084007 | 48 | 360 | 3.5 | 5.2 | 0.00 | 0.00 | 0.00 | 57 | 952.8 |
| 20260505083505 | 48 | 360 | 1.7 | 5.2 | 0.00 | 0.00 | 0.00 | 58 | 952.4 |
| 20260505083006 | 48 | 360 | 1.7 | 3.5 | 0.00 | 0.00 | 0.00 | 57 | 952.2 |
| 20260505082501 | 48 | 360 | 1.7 | 4.3 | 0.00 | 0.00 | 0.00 | 56 | 951.9 |
| 20260505082100 | 48 | 360 | 1.7 | 4.3 | 0.00 | 0.00 | 0.00 | 55 | 951.6 |
| 20260505081602 | 49 | 360 | 0.9 | 4.3 | 0.00 | 0.00 | 0.00 | 55 | 951.6 |
| 20260505081059 | 49 | 360 | 2.6 | 4.3 | 0.00 | 0.00 | 0.00 | 54 | 951.7 |
| 20260505080557 | 49 | 360 | 1.7 | 5.2 | 0.00 | 0.00 | 0.00 | 54 | 951.5 |
| 20260505080057 | 50 | 360 | 2.6 | 7.8 | 0.00 | 0.00 | 0.00 | 53 | 951.3 |
| 20260505075554 | 50 | 360 | 1.7 | 9.6 | 0.00 | 0.00 | 0.00 | 53 | 950.9 |
| 20260505075054 | 50 | 360 | 3.5 | 9.6 | 0.00 | 0.00 | 0.00 | 53 | 951.2 |
| 20260505074553 | 50 | 360 | 3.5 | 9.6 | 0.00 | 0.00 | 0.00 | 53 | 951.3 |
| 20260505074054 | 51 | 360 | 4.3 | 9.6 | 0.00 | 0.00 | 0.00 | 53 | 951.1 |
| 20260505073551 | 51 | 360 | 3.5 | 9.6 | 0.00 | 0.00 | 0.00 | 53 | 950.8 |
| 20260505073057 | 51 | 360 | 3.5 | 13.0 | 0.00 | 0.00 | 0.00 | 53 | 950.9 |
| 20260505072549 | 51 | 360 | 3.5 | 11.3 | 0.00 | 0.00 | 0.00 | 53 | 951.0 |
| 20260505072048 | 51 | 360 | 6.1 | 10.4 | 0.00 | 0.00 | 0.00 | 53 | 950.9 |
| 20260505071550 | 51 | 360 | 3.5 | 8.7 | 0.00 | 0.00 | 0.00 | 54 | 950.6 |
| 20260505071047 | 51 | 360 | 3.5 | 10.4 | 0.00 | 0.00 | 0.00 | 54 | 950.4 |
| 20260505070549 | 51 | 360 | 2.6 | 7.8 | 0.00 | 0.00 | 0.00 | 54 | 950.4 |
| 20260505070053 | 51 | 360 | 2.6 | 5.2 | 0.00 | 0.00 | 0.00 | 54 | 950.0 |
| 20260505065545 | 51 | 360 | 0.9 | 7.0 | 0.00 | 0.00 | 0.00 | 54 | 950.0 |
| 20260505065046 | 51 | 360 | 2.6 | 7.0 | 0.00 | 0.00 | 0.00 | 54 | 950.1 |
| 20260505064544 | 51 | 360 | 2.6 | 7.0 | 0.00 | 0.00 | 0.00 | 55 | 950.4 |
| 20260505064145 | 52 | 360 | 3.5 | 7.8 | 0.00 | 0.00 | 0.00 | 54 | 950.4 |
| 20260505063542 | 52 | 360 | 3.5 | 7.8 | 0.00 | 0.00 | 0.00 | 53 | 950.2 |
| 20260505063043 | 52 | 360 | 1.7 | 7.0 | 0.00 | 0.00 | 0.00 | 53 | 949.8 |
| 20260505062542 | 52 | 360 | 4.3 | 7.8 | 0.00 | 0.00 | 0.00 | 53 | 950.0 |
| 20260505062041 | 52 | 360 | 4.3 | 8.7 | 0.00 | 0.00 | 0.00 | 53 | 949.9 |
| 20260505061539 | 52 | 360 | 4.3 | 8.7 | 0.00 | 0.00 | 0.00 | 53 | 949.8 |
| 20260505061039 | 52 | 360 | 3.5 | 7.8 | 0.00 | 0.00 | 0.00 | 53 | 949.5 |
| 20260505060537 | 52 | 360 | 4.3 | 8.7 | 0.00 | 0.00 | 0.00 | 53 | 949.6 |
| 20260505060036 | 52 | 360 | 4.3 | 8.7 | 0.00 | 0.00 | 0.00 | 53 | 949.5 |
| 20260505055535 | 53 | 360 | 4.3 | 7.8 | 0.00 | 0.00 | 0.00 | 52 | 949.5 |
| 20260505055036 | 53 | 360 | 2.6 | 11.3 | 0.00 | 0.00 | 0.00 | 52 | 949.2 |
| 20260505054533 | 53 | 360 | 4.3 | 11.3 | 0.00 | 0.00 | 0.00 | 51 | 949.2 |
| 20260505054031 | 54 | 360 | 5.2 | 9.6 | 0.00 | 0.00 | 0.00 | 50 | 949.1 |
| 20260505053531 | 54 | 360 | 6.1 | 9.6 | 0.00 | 0.00 | 0.00 | 51 | 949.1 |
| 20260505053029 | 54 | 360 | 4.3 | 8.7 | 0.00 | 0.00 | 0.00 | 50 | 949.0 |
| 20260505052527 | 54 | 360 | 2.6 | 7.8 | 0.00 | 0.00 | 0.00 | 50 | 949.0 |
| 20260505052029 | 54 | 360 | 2.6 | 7.0 | 0.00 | 0.00 | 0.00 | 50 | 949.0 |
| 20260505051525 | 54 | 360 | 3.5 | 7.0 | 0.00 | 0.00 | 0.00 | 49 | 948.9 |
| 20260505051022 | 55 | 360 | 3.5 | 7.0 | 0.00 | 0.00 | 0.00 | 49 | 948.9 |
| 20260505050521 | 55 | 360 | 3.5 | 8.7 | 0.00 | 0.00 | 0.00 | 49 | 948.8 |
| 20260505041537 | 57 | 360 | 3.5 | 5.2 | 0.00 | 0.00 | 0.00 | 48 | 948.4 |
| 20260505041019 | 57 | 360 | 3.5 | 5.2 | 0.00 | 0.00 | 0.00 | 47 | 948.4 |
| 20260505040520 | 58 | 360 | 2.6 | 7.0 | 0.00 | 0.00 | 0.00 | 46 | 948.4 |
| 20260505040019 | 58 | 360 | 3.5 | 7.8 | 0.00 | 0.00 | 0.00 | 45 | 948.4 |
| 20260505035518 | 59 | 360 | 3.5 | 10.4 | 0.00 | 0.00 | 0.00 | 43 | 948.5 |
| 20260505035018 | 59 | 360 | 6.1 | 10.4 | 0.00 | 0.00 | 0.00 | 42 | 948.4 |
| 20260505034518 | 60 | 360 | 5.2 | 12.2 | 0.00 | 0.00 | 0.00 | 42 | 948.4 |
| 20260505034022 | 60 | 360 | 7.0 | 13.0 | 0.00 | 0.00 | 0.00 | 42 | 948.4 |
| 20260505033519 | 60 | 360 | 7.0 | 13.0 | 0.00 | 0.00 | 0.00 | 41 | 948.3 |
| 20260505033018 | 60 | 360 | 7.8 | 13.0 | 0.00 | 0.00 | 0.00 | 42 | 948.3 |
| 20260505032521 | 60 | 360 | 7.0 | 12.2 | 0.00 | 0.00 | 0.00 | 42 | 948.2 |
| 20260505032016 | 61 | 360 | 6.1 | 12.2 | 0.00 | 0.00 | 0.00 | 43 | 948.3 |
| 20260505031518 | 61 | 360 | 7.0 | 11.3 | 0.00 | 0.00 | 0.00 | 43 | 948.3 |
| 20260505031015 | 61 | 360 | 3.5 | 7.8 | 0.00 | 0.00 | 0.00 | 44 | 948.1 |
| 20260505030515 | 61 | 360 | 4.3 | 8.7 | 0.00 | 0.00 | 0.00 | 43 | 948.0 |
| 20260505030019 | 61 | 360 | 6.1 | 8.7 | 0.00 | 0.00 | 0.00 | 42 | 947.9 |
| 20260505025516 | 61 | 360 | 4.3 | 7.8 | 0.00 | 0.00 | 0.00 | 44 | 947.7 |
| 20260505025015 | 61 | 360 | 4.3 | 7.8 | 0.00 | 0.00 | 0.00 | 44 | 947.7 |
| 20260505024518 | 61 | 360 | 2.6 | 4.3 | 0.00 | 0.00 | 0.00 | 45 | 947.6 |
| 20260505024015 | 61 | 360 | 2.6 | 5.2 | 0.00 | 0.00 | 0.00 | 44 | 947.4 |
| 20260505023515 | 62 | 360 | 3.5 | 7.8 | 0.00 | 0.00 | 0.00 | 43 | 947.3 |
| 20260505023016 | 63 | 360 | 5.2 | 8.7 | 0.00 | 0.00 | 0.00 | 40 | 947.3 |
| 20260505022515 | 63 | 360 | 5.2 | 8.7 | 0.00 | 0.00 | 0.00 | 39 | 947.3 |
| 20260505022016 | 63 | 360 | 4.3 | 8.7 | 0.00 | 0.00 | 0.00 | 39 | 947.4 |
| 20260505021514 | 63 | 360 | 3.5 | 8.7 | 0.00 | 0.00 | 0.00 | 40 | 947.5 |
| 20260505021013 | 64 | 360 | 5.2 | 10.4 | 0.00 | 0.00 | 0.00 | 40 | 947.5 |
| 20260505020513 | 65 | 360 | 6.1 | 11.3 | 0.00 | 0.00 | 0.00 | 39 | 947.6 |
| 20260505020017 | 65 | 360 | 7.0 | 16.5 | 0.00 | 0.00 | 0.00 | 39 | 947.5 |
| 20260505015517 | 65 | 360 | 8.7 | 16.5 | 0.00 | 0.00 | 0.00 | 38 | 947.3 |
| 20260505015013 | 66 | 360 | 7.8 | 17.4 | 0.00 | 0.00 | 0.00 | 38 | 946.7 |
| 20260505014513 | 66 | 360 | 11.3 | 21.7 | 0.00 | 0.00 | 0.00 | 37 | 946.5 |
| 20260505014012 | 67 | 360 | 8.7 | 21.7 | 0.00 | 0.00 | 0.00 | 37 | 946.3 |
| 20260505013514 | 67 | 360 | 9.6 | 16.5 | 0.00 | 0.00 | 0.00 | 38 | 946.2 |
| 20260505013018 | 67 | 294 | 9.6 | 16.5 | 0.00 | 0.00 | 0.00 | 37 | 945.9 |
| 20260505012514 | 68 | 320 | 8.7 | 14.8 | 0.00 | 0.00 | 0.00 | 37 | 945.6 |
| 20260505012014 | 68 | 360 | 9.6 | 22.6 | 0.00 | 0.00 | 0.00 | 37 | 945.4 |
| 20260505011521 | 69 | 318 | 11.3 | 22.6 | 0.00 | 0.00 | 0.00 | 36 | 945.2 |
| 20260505011014 | 69 | 360 | 13.0 | 19.1 | 0.00 | 0.00 | 0.00 | 36 | 944.9 |
| 20260505010511 | 69 | 292 | 12.2 | 17.4 | 0.00 | 0.00 | 0.00 | 37 | 944.6 |
| 20260505010011 | 70 | 275 | 10.4 | 15.6 | 0.00 | 0.00 | 0.00 | 38 | 944.4 |
| 20260505005511 | 71 | 309 | 8.7 | 16.5 | 0.00 | 0.00 | 0.00 | 39 | 944.3 |
| 20260505005013 | 71 | 304 | 8.7 | 18.2 | 0.00 | 0.00 | 0.00 | 39 | 944.0 |
| 20260505004513 | 72 | 319 | 12.2 | 18.2 | 0.00 | 0.00 | 0.00 | 38 | 943.9 |
| 20260505004011 | 72 | 303 | 12.2 | 25.2 | 0.00 | 0.00 | 0.00 | 37 | 943.8 |
| 20260505003512 | 73 | 308 | 12.2 | 25.2 | 0.00 | 0.00 | 0.00 | 39 | 943.8 |
| 20260505003010 | 74 | 269 | 12.2 | 16.5 | 0.00 | 0.00 | 0.00 | 40 | 943.7 |
| 20260505002510 | 74 | 308 | 7.8 | 16.5 | 0.00 | 0.00 | 0.00 | 40 | 943.6 |
| 20260505002010 | 75 | 286 | 7.8 | 17.4 | 0.00 | 0.00 | 0.00 | 40 | 943.5 |
| 20260505001510 | 75 | 306 | 9.6 | 17.4 | 0.00 | 0.00 | 0.00 | 40 | 943.2 |
| 20260505001010 | 75 | 289 | 9.6 | 15.6 | 0.00 | 0.00 | 0.00 | 40 | 943.1 |
| 20260505000508 | 76 | 281 | 9.6 | 15.6 | 0.00 | 0.00 | 0.00 | 39 | 942.9 |
| 20260505000015 | 76 | 302 | 11.3 | 20.0 | 0.00 | 0.00 | 0.00 | 38 | 943.0 |
| 20260504235508 | 77 | 264 | 11.3 | 20.0 | 0.00 | 0.00 | 0.00 | 38 | 943.0 |
| 20260504235009 | 77 | 279 | 7.0 | 15.6 | 0.00 | 0.00 | 0.00 | 37 | 942.9 |
| 20260504234508 | 77 | 283 | 10.4 | 21.7 | 0.00 | 0.00 | 0.00 | 36 | 942.9 |
| 20260504234008 | 78 | 259 | 13.9 | 21.7 | 0.00 | 0.00 | 0.00 | 35 | 942.9 |
| 20260504233508 | 78 | 286 | 13.0 | 20.9 | 0.00 | 0.00 | 0.00 | 36 | 942.9 |
| 20260504233007 | 78 | 303 | 13.9 | 21.7 | 0.00 | 0.00 | 0.00 | 36 | 943.0 |
| 20260504232508 | 78 | 265 | 8.7 | 16.5 | 0.00 | 0.00 | 0.00 | 36 | 942.9 |
| 20260504232007 | 78 | 288 | 8.7 | 13.0 | 0.00 | 0.00 | 0.00 | 35 | 942.9 |
| 20260504231507 | 78 | 281 | 8.7 | 13.9 | 0.00 | 0.00 | 0.00 | 37 | 942.9 |
| 20260504231007 | 78 | 288 | 8.7 | 14.8 | 0.00 | 0.00 | 0.00 | 38 | 942.9 |
| 20260504230506 | 78 | 275 | 8.7 | 18.2 | 0.00 | 0.00 | 0.00 | 37 | 942.9 |
| 20260504230012 | 79 | 252 | 10.4 | 18.2 | 0.00 | 0.00 | 0.00 | 36 | 942.8 |
| 20260504225508 | 79 | 259 | 11.3 | 21.7 | 0.00 | 0.00 | 0.00 | 38 | 942.9 |
| 20260504225004 | 79 | 248 | 9.6 | 21.7 | 0.00 | 0.00 | 0.00 | 36 | 943.0 |
| 20260504224504 | 79 | 252 | 10.4 | 14.8 | 0.00 | 0.00 | 0.00 | 36 | 943.0 |
| 20260504224004 | 79 | 265 | 6.1 | 14.8 | 0.00 | 0.00 | 0.00 | 38 | 943.1 |
| 20260504223503 | 79 | 243 | 7.0 | 15.6 | 0.00 | 0.00 | 0.00 | 36 | 943.0 |
| 20260504223003 | 78 | 229 | 6.1 | 21.7 | 0.00 | 0.00 | 0.00 | 37 | 943.1 |
| 20260504222505 | 78 | 243 | 11.3 | 21.7 | 0.00 | 0.00 | 0.00 | 35 | 943.2 |
| 20260504222007 | 78 | 238 | 10.4 | 20.9 | 0.00 | 0.00 | 0.00 | 35 | 943.2 |
| 20260504221505 | 79 | 257 | 9.6 | 24.3 | 0.00 | 0.00 | 0.00 | 36 | 943.1 |
| 20260504221002 | 79 | 260 | 16.5 | 24.3 | 0.00 | 0.00 | 0.00 | 34 | 943.1 |
| 20260504220502 | 80 | 263 | 11.3 | 21.7 | 0.00 | 0.00 | 0.00 | 35 | 943.2 |
| 20260504220002 | 80 | 253 | 9.6 | 23.5 | 0.00 | 0.00 | 0.00 | 35 | 943.2 |
| 20260504215502 | 79 | 248 | 15.6 | 23.5 | 0.00 | 0.00 | 0.00 | 36 | 943.3 |
| 20260504215004 | 78 | 271 | 10.4 | 20.0 | 0.00 | 0.00 | 0.00 | 38 | 943.3 |
| 20260504214604 | 78 | 249 | 11.3 | 20.0 | 0.00 | 0.00 | 0.00 | 37 | 943.3 |
| 20260504214101 | 78 | 232 | 12.2 | 23.5 | 0.00 | 0.00 | 0.00 | 36 | 943.4 |
| 20260504213600 | 80 | 257 | 14.8 | 21.7 | 0.00 | 0.00 | 0.00 | 35 | 943.4 |
| 20260504213139 | 80 | 250 | 14.8 | 23.5 | 0.00 | 0.00 | 0.00 | 34 | 943.4 |
| 20260504212559 | 80 | 243 | 13.0 | 20.9 | 0.00 | 0.00 | 0.00 | 35 | 943.5 |
| 20260504212057 | 80 | 235 | 11.3 | 20.9 | 0.00 | 0.00 | 0.00 | 34 | 943.5 |
| 20260504211605 | 80 | 239 | 11.3 | 20.9 | 0.00 | 0.00 | 0.00 | 33 | 943.5 |
| 20260504211058 | 80 | 235 | 13.9 | 20.9 | 0.00 | 0.00 | 0.00 | 34 | 943.6 |
| 20260504210557 | 80 | 259 | 13.9 | 20.9 | 0.00 | 0.00 | 0.00 | 35 | 943.7 |
| 20260504210056 | 79 | 243 | 11.3 | 20.9 | 0.00 | 0.00 | 0.00 | 35 | 943.8 |
| 20260504205557 | 79 | 252 | 7.8 | 20.0 | 0.00 | 0.00 | 0.00 | 35 | 943.7 |
| 20260504205054 | 79 | 245 | 9.6 | 20.9 | 0.00 | 0.00 | 0.00 | 33 | 943.8 |
| 20260504204556 | 80 | 259 | 13.0 | 23.5 | 0.00 | 0.00 | 0.00 | 34 | 943.9 |
| 20260504204054 | 80 | 204 | 13.9 | 23.5 | 0.00 | 0.00 | 0.00 | 34 | 944.0 |
| 20260504203557 | 79 | 247 | 14.8 | 22.6 | 0.00 | 0.00 | 0.00 | 36 | 944.1 |
| 20260504203112 | 80 | 253 | 13.0 | 20.9 | 0.00 | 0.00 | 0.00 | 33 | 944.0 |
| 20260504202552 | 80 | 212 | 7.8 | 16.5 | 0.00 | 0.00 | 0.00 | 36 | 944.1 |
| 20260504202050 | 80 | 221 | 8.7 | 18.2 | 0.00 | 0.00 | 0.00 | 33 | 944.2 |
| 20260504201550 | 79 | 239 | 9.6 | 24.3 | 0.00 | 0.00 | 0.00 | 35 | 944.3 |
| 20260504201049 | 79 | 242 | 14.8 | 24.3 | 0.00 | 0.00 | 0.00 | 32 | 944.4 |
| 20260504200549 | 79 | 252 | 13.9 | 19.1 | 0.00 | 0.00 | 0.00 | 36 | 944.5 |
| 20260504200051 | 79 | 247 | 9.6 | 21.7 | 0.00 | 0.00 | 0.00 | 34 | 944.4 |
| 20260504195550 | 79 | 283 | 12.2 | 21.7 | 0.00 | 0.00 | 0.00 | 36 | 944.4 |
| 20260504195049 | 79 | 240 | 13.0 | 25.2 | 0.00 | 0.00 | 0.00 | 38 | 944.4 |
| 20260504194559 | 79 | 244 | 12.2 | 25.2 | 0.00 | 0.00 | 0.00 | 35 | 944.6 |
| 20260504194047 | 79 | 269 | 11.3 | 20.0 | 0.00 | 0.00 | 0.00 | 37 | 944.4 |
| 20260504193552 | 79 | 272 | 10.4 | 17.4 | 0.00 | 0.00 | 0.00 | 36 | 944.6 |
| 20260504193056 | 79 | 243 | 7.8 | 16.5 | 0.00 | 0.00 | 0.00 | 38 | 944.5 |
| 20260504192545 | 79 | 257 | 8.7 | 17.4 | 0.00 | 0.00 | 0.00 | 36 | 944.5 |
| 20260504192045 | 79 | 274 | 9.6 | 21.7 | 0.00 | 0.00 | 0.00 | 36 | 944.6 |
| 20260504191544 | 79 | 246 | 7.8 | 18.2 | 0.00 | 0.00 | 0.00 | 39 | 944.7 |
| 20260504191043 | 78 | 196 | 8.7 | 16.5 | 0.00 | 0.00 | 0.00 | 37 | 944.7 |
| 20260504190545 | 78 | 271 | 7.0 | 21.7 | 0.00 | 0.00 | 0.00 | 39 | 944.7 |
| 20260504190042 | 78 | 218 | 12.2 | 21.7 | 0.00 | 0.00 | 0.00 | 33 | 944.7 |